SCP
0 0 0 0 0 0 0 0 0 0 0 0 0 0 0 0 0 0 0 0 0 0 0 0 0 0 0 0 0 0 0 0 0 0 0 0 0 0 0 0 0 0 0 0 0 0 0 0 0
0 0 0 0 0 0 0 0 0 0 0 0 0 0 0 0 0 0 0 0 0 0 0 0 0 0 0 0 0 0 0 0 0 0 0 0 0 0 0 0 0 0 0 0 0 0 0 0 0
0 0 0 0 0 0 0 0 0 0 0 0 0 0 0 0 0 0 0 0 0 0 0 0 0 0 0 0 0 0 0 0 0 0 0 0 0 0 0 0 0 0 0 0 0 0 0 0 0
0 0 0 0 0 0 0 0 0 0 0 0 0 0 0 0 0 0 0 0 0 0 0 0 0 0 0 0 0 0 0 0 0 0 0 0 0 0 0 0 0 0 0 0 0 0 0 0 0
0 0 0 0 0 0 0 0 0 0 0 0 0 0 0 0 0 0 0 0 0 0 0 0 0 0 0 0 0 0 0 0 0 0 0 0 0 0 0 0 0 0 0 0 0 0 0 0 0
0 0 0 0 0 0 0 0 0 0 0 0 0 0 0 0 0 0 0 0 0 0 0 0 0 0 0 0 0 0 0 0 0 0 0 0 0 0 0 0 0 0 0 0 0 0 0 0 0
0 0 0 -0 -0 0 0 0 0 0 0 0 0 0 0 0 0 0 0 0 0 0 0 0 0 0 0 0 0 0 0 0 0 0 0 0 0 0 0 0 0 0 0 0 0 0 0 0 0
0 0 0 0 -0 -0 0 0 0 0 0 0 0 0 0 0 0 0 0 0 0 0 0 0 0 0 0 0 0 0 0 0 0 0 0 0 0 0 0 0 0 0 0 0 0 0 0 0 0
0 0 0 0 0 0 0 0 0 0 0 0 0 0 0 0 0 0 0 0 0 0 0 0 0 0 0 0 0 0 0 0 0 0 0 0 0 0 0 0 0 0 0 0 0 0 0 0 0
0 0 0 0 0 0 0 0 0 0 0 0 0 0 0 0 0 0 0 0 0 0 0 0 0 0 0 0 0 0 0 0 0 0 0 0 0 0 0 0 0 0 0 0 0 0 0 0 0
0 0 0 0 0 0 0 0 0 0 0 0 0 0 0 0 0 0 0 0 0 0 0 0 0 0 0 0 0 0 0 0 0 0 0 0 0 0 0 0 0 0 0 0 0 0 0 0 0
0 0 0 0 0 0 0 0 0 0 0 0 0 0 0 0 0 0 0 0 0 0 0 0 0 0 0 0 0 0 0 0 0 0 0 0 0 0 0 0 0 0 0 0 0 0 0 0 0
0 0 0 0 0 0 0 0 0 0 0 0 0 0 0 0 0 0 0 0 0 0 0 0 0 0 0 0 0 0 0 0 0 0 0 0 0 0 0 0 0 0 0 0 0 0 0 0 0
0 0 0 0 0 0 0 0 0 0 0 0 0 0 0 0 0 0 0 0 0 0 0 0 0 0 0 0 0 0 0 0 0 0 0 0 0 0 0 0 0 0 0 0 0 0 0 0 0
0 0 0 0 0 0 0 0 0 0 0 0 0 0 0 0 0 0 0 0 0 0 0 0 0 0 0 0 0 0 0 0 0 0 0 0 0 0 0 0 0 0 0 0 0 0 0 0 0
0 0 0 0 0 0 0 0 0 0 0 0 0 0 0 0 0 0 0 0 0 0 0 0 0 0 0 -0 -0 0 0 0 0 0 0 0 0 0 0 0 0 0 0 0 0 0 0 0 0
0 0 0 0 0 0 0 0 0 0 0 0 0 0 0 0 0 0 0 0 0 0 0 0 0 0 -0 -0 -0 0 0 0 0 0 0 0 0 0 0 0 0 0 0 0 0 0 0 0 0
0 0 0 0 0 0 0 0 0 0 0 0 0 0 0 0 0 0 0 0 0 0 0 0 0 0 -0 -0 0 0 0 0 0 0 0 0 0 0 0 0 0 0 0 0 0 0 0 0 0
0 0 0 0 0 0 0 0 0 0 0 0 0 0 0 0 0 0 0 0 0 0 0 0 0 0 0 0 0 0 0 0 0 0 0 0 0 0 0 0 0 0 0 0 0 0 0 0 0
0 0 0 0 0 0 0 0 0 0 0 0 0 0 0 0 0 0 0 0 0 0 0 0 0 0 0 0 0 0 0 0 0 0 0 0 0 0 0 0 0 0 0 0 0 0 0 0 0
0 0 0 0 0 0 0 0 0 0 0 0 0 0 0 0 0 0 0 0 0 0 0 0 0 0 0 0 0 0 0 0 0 0 0 0 0 0 0 0 0 0 0 0 0 0 0 0 0
0 0 0 0 0 0 0 0 0 0 0 0 0 0 0 0 0 0 0 0 0 0 0 0 0 0 0 0 0 0 0 0 0 0 0 0 0 0 0 0 0 0 0 0 0 0 0 0 0
0 0 0 0 0 0 0 0 0 0 0 0 0 0 0 0 0 0 0 0 0 0 0 0 0 0 0 0 0 0 0 0 0 0 0 0 0 0 0 0 0 0 0 0 0 0 0 0 0
0 0 0 0 0 0 0 0 0 0 0 0 0 0 0 0 0 0 0 0 0 0 0 0 0 0 0 0 0 0 0 0 0 0 0 0 0 0 0 0 0 0 0 0 0 0 0 0 0
0 0 0 0 0 0 0 0 0 0 0 0 0 0 0 0 0 0 0 0 0 0 0 0 0 0 0 0 0 0 0 0 0 0 0 0 0 0 0 0 0 0 0 0 0 0 0 0 0
0 0 0 0 0 0 0 0 0 0 0 0 0 0 0 0 0 0 0 0 0 0 0 0 0 0 0 0 0 0 0 0 0 0 0 0 0 0 0 0 0 0 0 0 0 0 0 0 0
0 0 0 0 0 0 0 0 0 0 0 0 0 0 0 0 0 0 0 0 0 0 0 0 0 0 0 0 0 0 0 0 0 0 0 0 0 0 0 0 0 0 0 0 0 0 0 0 0
0 0 0 0 0 0 0 0 0 0 0 0 0 0 0 0 0 0 0 0 0 0 0 0 0 0 0 0 0 0 0 0 0 0 0 0 0 0 0 0 0 0 0 0 0 0 0 0 0
0 0 0 0 0 0 0 0 0 0 0 0 0 0 0 0 0 0 0 0 0 0 0 0 0 0 0 0 0 0 0 0 0 0 0 0 0 0 0 0 0 0 0 0 0 0 0 0 0
0 0 0 0 0 0 0 0 0 0 0 -0 0 0 0 0 0 0 0 0 0 0 0 0 0 0 0 0 0 0 0 0 0 0 0 0 0 0 0 0 0 0 0 0 0 0 0 0 0
Wind_Speed
2 4 3 4 6 6 3 2 1 2 2 2 3 5 5 3 2 1 2 1 1 1 2 3 5 6 7 7 7 8 8 8 8 9 9 10 10 10 10 10 9 9 9 9 9 9 9 9 9
2 3 4 5 6 4 2 1 1 1 3 3 4 4 5 4 2 2 1 1 1 2 2 2 4 6 6 7 7 8 8 8 9 9 9 9 9 9 10 10 10 10 9 9 9 9 10 9 9
2 3 4 5 4 3 2 0 1 2 3 2 3 4 3 2 1 1 1 1 2 2 2 2 5 6 6 6 7 7 7 8 8 9 9 9 9 9 10 10 10 10 10 10 10 10 10 10 10
3 5 5 6 4 0 1 1 2 3 3 4 3 4 3 2 1 2 2 2 3 2 2 2 5 5 6 6 6 6 7 7 8 8 8 9 8 9 9 10 10 10 11 10 10 10 10 11 10
4 5 6 4 2 1 1 1 2 3 2 3 4 4 2 3 3 4 4 3 2 2 2 2 5 5 5 6 6 6 6 6 7 7 8 8 8 8 9 9 10 10 10 10 10 10 10 10 10
5 5 5 3 2 2 1 1 3 4 3 3 3 3 1 2 3 3 3 2 2 2 2 3 4 5 5 6 6 5 5 6 6 7 7 7 7 8 9 9 10 10 10 10 10 10 10 10 11
5 5 4 3 1 1 1 2 3 3 3 2 3 3 0 1 1 2 3 2 3 2 3 3 4 4 5 5 5 5 5 6 6 6 6 7 7 7 8 9 9 9 10 10 10 10 11 11 11
5 5 4 2 2 0 1 2 3 3 2 2 3 4 2 2 2 4 3 3 2 2 2 3 3 4 4 4 5 5 5 6 6 6 6 6 6 6 7 7 8 8 9 10 10 11 11 12 12
4 6 2 3 4 2 2 3 2 2 4 2 1 2 2 4 5 5 3 2 2 1 1 1 2 3 3 3 4 5 5 6 6 6 6 6 4 4 4 6 9 9 9 10 11 11 12 12 11
5 4 2 2 4 4 3 3 3 3 3 2 2 2 4 5 5 4 3 2 1 1 1 0 1 1 2 2 3 3 3 3 3 3 4 3 3 3 4 7 9 9 10 10 11 11 10 8 5
4 4 1 1 2 4 4 3 2 5 1 3 4 4 4 4 3 3 2 2 2 1 1 0 0 1 1 1 2 2 2 2 2 3 3 2 3 3 3 3 4 5 7 5 7 7 5 5 4
3 1 2 2 2 3 4 3 2 2 3 2 4 6 5 4 3 3 3 2 1 1 1 1 1 1 1 1 1 1 1 1 1 2 2 2 2 2 2 2 3 3 2 3 4 3 4 5 5
3 1 1 2 4 4 5 3 2 1 1 5 6 6 4 3 2 1 1 1 1 2 2 2 1 1 1 1 0 1 1 1 1 1 2 2 1 2 2 2 2 2 2 3 3 4 4 4 5
1 3 3 3 3 2 5 3 3 1 3 6 6 4 3 2 1 1 0 0 1 2 2 1 1 2 2 1 1 0 1 1 1 1 1 1 1 1 1 2 2 2 2 2 3 3 4 3 3
3 4 4 2 2 1 4 3 1 0 5 5 4 2 2 1 1 0 1 1 1 2 1 2 2 2 2 1 1 1 0 1 1 1 1 1 1 2 2 2 2 1 2 3 3 4 3 3 4
4 4 2 2 1 1 4 1 3 2 5 4 2 1 1 1 1 2 1 1 1 0 0 1 2 2 2 2 1 1 1 1 1 1 1 1 1 2 2 2 1 1 2 2 3 3 3 3 3
4 2 1 2 0 2 4 2 3 2 5 3 2 1 0 2 3 2 2 1 1 1 1 1 1 2 2 2 2 2 2 2 1 1 1 1 1 2 2 2 1 2 2 2 2 2 2 2 2
2 1 1 2 1 4 3 3 2 2 4 3 2 2 1 1 3 2 1 1 1 2 1 1 1 2 2 2 2 2 2 2 2 1 1 1 1 2 2 2 2 2 2 2 2 2 2 2 2
3 3 1 3 1 4 3 3 4 1 2 3 3 3 3 4 3 1 1 1 2 3 3 2 2 1 2 1 1 1 0 1 1 1 2 2 2 2 2 2 2 2 2 2 2 2 2 2 1
3 2 1 2 1 3 2 2 3 2 3 5 5 5 5 3 1 1 1 2 2 1 1 2 1 1 1 1 1 1 1 0 0 1 2 2 1 1 2 2 2 2 2 3 2 2 2 1 1
2 4 4 3 1 2 1 4 3 2 1 2 2 3 4 4 4 2 1 0 1 0 1 1 1 1 1 1 2 2 2 2 2 2 1 2 1 1 1 2 2 2 2 2 2 2 2 1 0
3 4 4 3 2 1 1 3 5 3 3 2 4 4 5 4 4 3 2 2 2 2 1 1 1 0 1 2 2 3 2 1 1 1 1 1 1 1 1 1 2 2 2 2 2 2 1 2 1
3 0 2 2 3 1 2 1 7 2 3 5 4 5 5 5 5 4 4 4 3 2 1 1 1 1 1 1 2 2 1 1 0 0 1 1 1 1 0 1 1 1 1 2 2 2 2 2 2
3 5 5 5 4 0 2 3 6 4 5 4 3 4 4 4 4 3 2 2 1 1 1 1 1 1 1 1 1 2 2 1 1 0 0 1 1 1 1 0 1 1 1 2 2 2 2 2 2
4 5 4 4 3 4 2 2 8 5 4 5 5 4 2 3 3 3 2 2 1 1 1 1 2 1 1 1 1 1 2 2 2 1 1 1 0 1 1 0 1 1 1 2 2 2 1 2 2
3 7 6 4 4 4 2 4 7 4 3 2 2 2 1 2 3 3 3 3 3 2 2 1 2 1 1 1 0 0 1 1 1 1 1 2 1 2 1 1 1 1 1 2 2 1 1 1 2
4 2 5 6 2 2 4 5 7 1 1 1 0 1 2 2 3 3 2 2 2 2 3 3 3 1 1 1 1 0 0 1 1 1 1 1 1 1 1 1 1 0 1 2 2 1 1 1 1
4 7 5 4 3 3 4 4 5 4 3 2 2 2 3 2 2 2 2 2 2 2 2 2 3 2 2 1 1 1 1 1 1 1 1 2 2 1 1 0 0 0 0 1 2 1 1 1 1
3 3 4 4 4 4 3 7 6 6 5 4 5 4 4 4 4 3 2 2 1 1 1 1 2 2 1 2 1 1 1 1 1 1 2 2 2 2 1 1 1 1 1 1 1 1 1 2 1
3 5 6 4 3 4 3 8 5 4 4 4 4 3 3 4 3 2 2 1 1 1 1 1 2 2 2 2 2 1 1 1 1 2 2 2 2 2 2 2 1 1 1 1 2 2 2 2 2
Wind_Direction
100 95 83 61 55 53 50 5 6 47 53 36 59 76 88 78 81 112 290 11 46 16 359 32 60 72 82 87 87 88 90 88 90 88 83 80 77 74 73 72 72 71 71 69 65 60 59 59 60
116 105 60 59 75 68 19 348 41 52 138 133 68 68 69 62 66 97 334 328 58 47 26 37 68 75 82 88 90 89 89 87 88 85 81 78 76 73 72 70 69 68 66 65 62 58 57 57 59
110 67 78 68 77 116 133 74 113 75 96 85 68 55 71 71 79 152 243 150 65 41 21 36 76 77 81 84 90 89 86 86 86 84 81 76 73 70 69 68 66 65 64 61 59 58 56 57 59
86 47 55 68 73 79 159 151 134 105 62 49 83 64 53 31 151 166 127 104 83 49 25 43 82 81 81 86 89 89 86 85 86 84 80 77 73 69 67 68 67 65 62 61 59 58 57 57 58
63 71 61 56 42 7 9 82 87 87 67 53 72 81 39 1 77 110 110 105 97 53 22 31 80 79 77 79 85 86 85 84 84 84 81 77 72 68 67 67 66 64 62 61 59 58 58 58 60
58 66 78 73 31 8 25 70 88 75 77 78 84 89 42 8 89 114 111 112 90 63 32 27 54 70 71 71 70 72 77 76 75 75 74 73 70 70 69 66 63 64 61 60 59 60 60 62 65
94 86 100 112 79 25 82 96 103 103 94 119 119 100 64 352 117 116 105 91 76 58 42 25 23 34 48 57 62 59 61 61 61 65 66 66 67 65 65 63 60 62 62 61 61 64 65 66 67
111 96 85 98 118 118 93 94 101 112 114 108 108 130 189 210 130 101 88 70 63 50 37 24 21 26 24 20 42 50 55 58 56 58 60 60 54 48 51 52 54 59 62 65 66 67 68 67 68
80 78 114 181 164 186 141 104 81 84 93 72 74 161 179 126 111 97 81 52 41 57 19 16 22 18 17 17 35 38 45 47 44 40 48 49 33 26 31 46 54 59 66 70 70 70 69 65 63
77 101 189 193 170 156 134 118 128 91 77 59 54 59 89 105 116 123 129 145 180 246 296 15 37 21 20 31 38 27 32 31 32 31 34 36 35 30 41 44 51 58 65 69 69 69 67 60 50
96 138 164 108 141 129 120 107 108 119 142 201 177 156 124 114 120 136 154 181 209 225 251 233 189 44 43 31 34 30 27 25 26 29 31 35 38 34 36 35 33 41 55 54 56 56 52 54 54
94 109 131 133 119 111 124 118 99 134 219 203 160 146 133 135 153 171 183 209 214 198 234 227 163 113 76 56 35 35 32 26 19 14 22 43 45 39 37 43 37 42 50 61 56 59 55 55 53
84 83 73 100 96 103 97 85 115 35 35 94 106 111 123 134 160 199 202 213 201 211 234 227 166 151 128 89 26 53 42 43 33 24 25 52 68 59 44 52 56 53 57 69 69 66 63 57 50
123 93 74 72 85 89 99 59 65 348 92 94 103 118 131 148 158 92 51 280 243 232 228 210 163 160 137 132 112 67 62 67 59 39 26 62 82 90 77 64 61 56 59 71 80 77 72 62 58
87 81 46 37 88 112 102 34 329 210 112 106 114 120 99 48 41 4 251 233 243 243 219 183 172 144 143 142 120 69 37 75 75 53 37 70 91 104 102 90 74 62 71 79 79 72 67 68 62
59 64 41 308 86 120 112 277 300 132 127 130 142 138 52 356 356 323 312 298 281 283 227 183 161 141 146 133 100 68 45 58 49 39 42 58 92 112 105 99 89 81 86 89 92 80 74 64 61
39 89 238 304 31 115 123 234 302 122 136 151 169 189 241 337 338 324 319 307 276 216 192 145 129 137 138 125 94 70 57 52 40 39 38 36 70 97 105 103 95 95 92 87 101 77 87 86 71
196 173 214 257 267 118 137 243 301 143 154 179 192 202 220 270 276 300 312 332 24 40 49 99 110 102 103 93 78 57 48 39 34 34 30 45 64 87 101 99 96 99 99 84 86 91 71 84 82
156 155 213 257 199 131 177 242 279 201 178 202 214 219 225 241 270 313 338 40 50 42 45 53 79 76 92 83 94 89 45 13 10 12 23 43 71 88 96 93 96 104 111 117 110 100 84 63 71
135 144 250 298 105 151 184 273 282 217 207 212 209 212 222 240 299 315 8 48 67 59 48 52 66 104 125 123 125 120 117 86 27 6 17 25 51 75 103 107 113 117 111 105 103 107 105 82 78
190 184 204 216 49 71 93 325 308 294 237 223 217 210 213 213 221 237 217 200 87 101 170 176 200 202 151 112 87 70 49 35 24 9 355 351 23 65 90 125 122 123 129 147 148 135 133 152 89
239 229 191 172 128 289 114 275 285 278 300 257 238 225 225 220 213 208 201 198 209 222 210 199 162 151 112 124 129 141 142 161 223 246 280 332 9 33 89 128 136 136 138 152 172 152 145 141 148
218 130 122 135 141 60 16 194 285 309 278 270 253 236 230 217 207 204 203 204 211 208 186 191 118 103 82 114 156 160 161 173 189 14 28 7 0 351 4 123 128 139 157 165 160 147 152 153 153
127 71 58 51 75 337 247 186 279 253 234 259 261 241 229 211 204 210 206 186 194 184 166 145 120 108 96 101 141 163 170 163 112 29 10 347 348 344 338 94 133 157 165 167 172 165 165 169 158
80 85 34 1 10 257 259 196 252 257 240 231 243 249 227 188 183 188 184 186 194 189 180 154 136 129 120 127 156 185 177 172 185 204 211 220 302 302 290 269 201 191 195 177 153 144 161 172 169
150 135 154 200 229 277 305 236 255 267 271 250 225 216 180 172 180 190 200 192 194 196 183 164 159 173 163 147 218 219 182 180 202 207 205 216 224 237 254 235 227 224 193 170 144 140 175 166 184
130 148 161 137 165 267 281 286 302 308 337 344 119 135 183 192 195 201 204 195 195 195 195 185 178 188 194 177 171 152 227 198 210 226 227 228 240 235 232 211 209 243 189 168 151 143 173 162 183
132 142 104 118 155 256 289 278 255 264 267 280 268 231 227 208 205 212 212 212 205 194 191 177 175 188 201 185 187 188 236 237 215 201 224 240 243 236 201 187 191 205 187 160 147 150 145 137 187
108 105 113 126 153 162 258 272 231 226 228 232 244 234 218 215 214 216 223 220 200 152 143 161 181 178 189 203 204 192 224 244 211 205 231 240 243 225 203 202 184 173 171 159 156 172 160 153 156
164 164 147 154 213 174 185 266 268 238 240 226 240 242 220 214 212 214 213 192 164 170 180 182 193 205 219 208 195 214 229 231 222 229 241 238 242 237 214 189 175 181 172 158 169 190 183 183 194